Погода в Богородском

Россия / Московская область     56°29′46″N   38°10′48″E
темп.,
°C
ветер,
м/с
пор.,
м/с
влажн.,
%
обл.,
%
осадки,
мм/ч
давл.,
гПа
погр.,
м
18 мая, вт
вт1800:00+16юв31292100 0.0 1011247
03:00+15юв3139475 0.0 1011256
06:00+15юв314865 0.0 1010337
09:00+21юв5135799 0.0 1011549
12:00+26юв6114481 0.0 10101090
15:00+27юв512388 0.0 10092841
18:00+24юв512466 0.0 1009908
21:00+18вюв4157343 0.0 1009394
19 мая, ср
ср1900:00+18юв5157576 0.0 1009432
03:00+16вюв4158313 0.0 1008376
06:00+17юв514764 0.0 1008504
09:00+21юв5135837 0.0 1008784
12:00+24юв6124899 0.0 10081374
15:00+25ююв5124888 0.0 10082040
18:00+24ююв485888 0.0 10071297
21:00+17ююз119012 0.0 100811
20 мая, чт
чт2000:00+16ююв41595100 6.0 1008632
03:00+17юв51487100 7.4 1007700
06:00+15вюв4129078 0.0 1007397
09:00+19юв697799 0.2 1007871
12:00+19ююв61075100 0.4 10071525
15:00+19ююв696614 1.4 10061533
18:00+18ююв51169100 0.4 10061346
21:00+14ююв41184100 0.4 1006705
21 мая, пт
пт2100:00+13ююв4109395 0.0 1006436
03:00+11ююв4109869 0.0 1005392
06:00+12ю4892100 0.2 1005736
09:00+11ююз4794100 1.3 1005652
12:00+12ююз5779100 1.6 10061196
15:00+10ююз4891100 1.9 1008940
18:00+10зюз61192100 0.2 1011881
21:00+10з5128796 0.3 1015806
22 мая, сб
сб2200:00+8юз3895100 0.0 1016164
03:00+8ююз399056 0.0 1018223
06:00+9юз38831 0.0 1019265
09:00+14зюз35581 0.0 1019847
12:00+17юз244587 0.0 10191811
15:00+18юз234293 0.0 10181984
18:00+16ююв4660100 0.0 1019605
21:00+10ю37957 0.0 1019163